Hourly Weather Munkebo

Today, 28 September, Tuesday

Time Temperature Precipitation Wind Pressure Humidity
00:00 +14°C° 0.6 mm 5 mps 760 mmHg 91%
01:00 +14°C° 0 mm 5 mps 761 mmHg 90%
02:00 +13°C° 0 mm 5 mps 762 mmHg 91%
03:00 +13°C° 0 mm 5 mps 762 mmHg 93%
04:00 +12°C° 0 mm 4 mps 763 mmHg 95%
05:00 +12°C° 0 mm 4 mps 763 mmHg 94%
06:00 +11°C° 0 mm 4 mps 764 mmHg 93%
07:00 +11°C° 0 mm 3 mps 764 mmHg 93%
08:00 +13°C° 0 mm 3 mps 764 mmHg 84%
09:00 +14°C° 0 mm 3 mps 765 mmHg 76%
10:00 +17°C° 0 mm 3 mps 765 mmHg 68%
11:00 +17°C° 0 mm 3 mps 765 mmHg 64%
12:00 +18°C° 0 mm 3 mps 765 mmHg 60%
13:00 +19°C° 0 mm 2 mps 765 mmHg 56%
14:00 +19°C° 0 mm 2 mps 765 mmHg 56%
15:00 +19°C° 0 mm 2 mps 765 mmHg 55%
16:00 +19°C° 0 mm 2 mps 765 mmHg 55%
17:00 +17°C° 0 mm 2 mps 765 mmHg 61%
18:00 +16°C° 0 mm 2 mps 765 mmHg 67%
19:00 +14°C° 0 mm 2 mps 765 mmHg 73%
20:00 +14°C° 0 mm 2 mps 765 mmHg 74%
21:00 +14°C° 0 mm 2 mps 765 mmHg 75%
22:00 +14°C° 0 mm 2 mps 765 mmHg 76%
23:00 +13°C° 0 mm 3 mps 765 mmHg 78%

Tomorrow, 29 September, Wednesday

Time Temperature Precipitation Wind Pressure Humidity
00:00 +13°C° 0 mm 3 mps 765 mmHg 80%
01:00 +12°C° 0 mm 3 mps 765 mmHg 83%
02:00 +12°C° 0 mm 3 mps 764 mmHg 84%
03:00 +12°C° 0 mm 4 mps 764 mmHg 85%
04:00 +12°C° 0 mm 4 mps 764 mmHg 86%
05:00 +12°C° 0 mm 4 mps 763 mmHg 87%
06:00 +12°C° 0 mm 4 mps 763 mmHg 87%
07:00 +12°C° 0 mm 5 mps 763 mmHg 88%
08:00 +13°C° 0 mm 5 mps 763 mmHg 82%
09:00 +14°C° 0 mm 5 mps 762 mmHg 76%
10:00 +15°C° 0 mm 6 mps 762 mmHg 70%
11:00 +15°C° 0 mm 6 mps 761 mmHg 70%
12:00 +15°C° 0 mm 5 mps 760 mmHg 71%
13:00 +15°C° 0 mm 5 mps 760 mmHg 71%
14:00 +15°C° 0.5 mm 6 mps 759 mmHg 73%
15:00 +15°C° 0.5 mm 7 mps 758 mmHg 76%
16:00 +15°C° 0.5 mm 8 mps 758 mmHg 78%
17:00 +12°C° 0.4 mm 9 mps 758 mmHg 78%
18:00 +9°C° 0.4 mm 10 mps 758 mmHg 79%
19:00 +8°C° 0.4 mm 11 mps 758 mmHg 79%
20:00 +8°C° 0.1 mm 12 mps 758 mmHg 80%
21:00 +8°C° 0.1 mm 12 mps 758 mmHg 80%
22:00 +8°C° 0.1 mm 13 mps 757 mmHg 81%
23:00 +8°C° 0.1 mm 14 mps 757 mmHg 82%

Day after tomorrow, 30 September, Thursday

Time Temperature Precipitation Wind Pressure Humidity
00:00 +8°C° 0.1 mm 14 mps 757 mmHg 84%
01:00 +6°C° 0.1 mm 15 mps 757 mmHg 85%
02:00 +8°C° 0.3 mm 14 mps 756 mmHg 87%
03:00 +8°C° 0.3 mm 13 mps 756 mmHg 88%
04:00 +8°C° 0.3 mm 13 mps 756 mmHg 89%
05:00 +8°C° 0.4 mm 13 mps 756 mmHg 89%
06:00 +8°C° 0.4 mm 13 mps 757 mmHg 89%
07:00 +8°C° 0.4 mm 13 mps 757 mmHg 89%
08:00 +8°C° 0.5 mm 13 mps 758 mmHg 85%
09:00 +9°C° 0.5 mm 13 mps 759 mmHg 80%
10:00 +9°C° 0.5 mm 14 mps 761 mmHg 76%
11:00 +9°C° 0 mm 13 mps 761 mmHg 72%
12:00 +10°C° 0 mm 13 mps 762 mmHg 69%
13:00 +12°C° 0 mm 13 mps 763 mmHg 66%
14:00 +10°C° 0 mm 12 mps 763 mmHg 67%
15:00 +10°C° 0 mm 12 mps 763 mmHg 68%
16:00 +9°C° 0 mm 11 mps 763 mmHg 69%
17:00 +9°C° 0.1 mm 11 mps 764 mmHg 70%
18:00 +8°C° 0.1 mm 11 mps 764 mmHg 71%
19:00 +8°C° 0.1 mm 10 mps 764 mmHg 73%
20:00 +8°C° 0.2 mm 11 mps 764 mmHg 74%
21:00 +8°C° 0.2 mm 11 mps 764 mmHg 76%
22:00 +8°C° 0.2 mm 11 mps 763 mmHg 77%
23:00 +7°C° 0.8 mm 11 mps 763 mmHg 80%

1 October, Friday

Time Temperature Precipitation Wind Pressure Humidity
00:00 +7°C° 0.8 mm 11 mps 763 mmHg 82%
01:00 +7°C° 0.8 mm 11 mps 762 mmHg 85%
02:00 +7°C° 1.1 mm 11 mps 762 mmHg 87%
03:00 +7°C° 1.1 mm 11 mps 761 mmHg 88%
04:00 +7°C° 1.1 mm 11 mps 761 mmHg 89%
05:00 +7°C° 0.7 mm 10 mps 761 mmHg 89%
06:00 +8°C° 0.7 mm 10 mps 761 mmHg 90%
07:00 +8°C° 0.7 mm 10 mps 761 mmHg 90%
08:00 +8°C° 0.3 mm 10 mps 761 mmHg 87%
09:00 +8°C° 0.3 mm 10 mps 761 mmHg 84%
10:00 +8°C° 0.3 mm 9 mps 761 mmHg 80%
11:00 +10°C° 0 mm 9 mps 761 mmHg 78%
12:00 +10°C° 0 mm 9 mps 760 mmHg 76%
13:00 +11°C° 0 mm 9 mps 760 mmHg 74%
14:00 +11°C° 0 mm 9 mps 760 mmHg 71%
15:00 +12°C° 0 mm 9 mps 760 mmHg 69%
16:00 +13°C° 0 mm 9 mps 759 mmHg 66%
17:00 +13°C° 0 mm 8 mps 759 mmHg 65%
18:00 +13°C° 0 mm 8 mps 759 mmHg 65%
19:00 +13°C° 0 mm 8 mps 759 mmHg 64%
20:00 +13°C° 0 mm 8 mps 758 mmHg 62%
21:00 +13°C° 0 mm 8 mps 758 mmHg 61%
22:00 +13°C° 0 mm 8 mps 758 mmHg 60%
23:00 +12°C° 0 mm 7 mps 757 mmHg 63%

2 October, Saturday

Time Temperature Precipitation Wind Pressure Humidity
00:00 +12°C° 0 mm 7 mps 757 mmHg 65%
01:00 +11°C° 0 mm 6 mps 756 mmHg 67%
02:00 +11°C° 0 mm 6 mps 756 mmHg 68%
03:00 +11°C° 0 mm 6 mps 755 mmHg 69%
04:00 +11°C° 0 mm 6 mps 754 mmHg 70%
05:00 +11°C° 0.1 mm 6 mps 754 mmHg 73%
06:00 +10°C° 0.1 mm 6 mps 754 mmHg 76%
07:00 +10°C° 0.1 mm 7 mps 754 mmHg 79%
08:00 +10°C° 0.6 mm 7 mps 754 mmHg 84%
09:00 +10°C° 0.6 mm 7 mps 754 mmHg 88%
10:00 +10°C° 0.6 mm 8 mps 754 mmHg 93%
11:00 +11°C° 0.2 mm 8 mps 754 mmHg 84%
12:00 +12°C° 0.2 mm 7 mps 754 mmHg 75%
13:00 +12°C° 0.2 mm 7 mps 755 mmHg 67%
14:00 +12°C° 0 mm 7 mps 755 mmHg 67%
15:00 +12°C° 0 mm 7 mps 755 mmHg 67%
16:00 +11°C° 0 mm 7 mps 756 mmHg 68%
17:00 +10°C° 0 mm 7 mps 756 mmHg 72%
18:00 +9°C° 0 mm 6 mps 756 mmHg 77%
19:00 +8°C° 0 mm 6 mps 757 mmHg 81%
20:00 +8°C° 0 mm 6 mps 757 mmHg 84%
21:00 +7°C° 0 mm 6 mps 757 mmHg 86%
22:00 +7°C° 0 mm 5 mps 757 mmHg 89%
23:00 +7°C° 0 mm 5 mps 757 mmHg 89%

3 October, Sunday

Time Temperature Precipitation Wind Pressure Humidity
00:00 +7°C° 0 mm 5 mps 757 mmHg 90%
01:00 +7°C° 0 mm 5 mps 757 mmHg 90%
02:00 +7°C° 0 mm 5 mps 756 mmHg 90%
03:00 +7°C° 0 mm 5 mps 756 mmHg 90%
04:00 +7°C° 0 mm 5 mps 756 mmHg 89%
05:00 +7°C° 0 mm 5 mps 756 mmHg 87%
06:00 +7°C° 0 mm 5 mps 755 mmHg 85%
07:00 +7°C° 0 mm 5 mps 755 mmHg 84%
08:00 +9°C° 0 mm 5 mps 755 mmHg 78%
09:00 +10°C° 0 mm 6 mps 755 mmHg 72%
10:00 +11°C° 0 mm 6 mps 755 mmHg 66%
11:00 +11°C° 0 mm 7 mps 754 mmHg 66%
12:00 +12°C° 0 mm 7 mps 753 mmHg 66%
13:00 +12°C° 0 mm 7 mps 753 mmHg 65%
14:00 +12°C° 0 mm 8 mps 752 mmHg 70%
15:00 +12°C° 0 mm 9 mps 751 mmHg 75%
16:00 +11°C° 0 mm 10 mps 750 mmHg 79%
17:00 +11°C° 1.4 mm 10 mps 749 mmHg 84%
18:00 +11°C° 1.4 mm 11 mps 748 mmHg 89%
19:00 +11°C° 1.4 mm 11 mps 746 mmHg 93%
20:00 +12°C° 1.9 mm 11 mps 746 mmHg 90%
21:00 +12°C° 1.9 mm 11 mps 745 mmHg 87%
22:00 +13°C° 1.9 mm 11 mps 745 mmHg 84%
23:00 +12°C° 0.5 mm 11 mps 744 mmHg 84%
Show more

We Need Your Consent

Meteoprog and our Service Providers may store and access personal data such as cookies, device identifiers or other similar technologies on your device and process such data to personalise content and ads, as well as provide social media features and to analyse the traffic.

  • Store and/or access information on your device

    Cookies, device identifiers or other information can be stored or accessed on your device for the purposes indicated above.

  • Personalised ads and content, ad and content measurement, audience insights, and products development

    Ads and content can be personalised based on a profile. More data can be added to better personalise ads and content. Ad and content performance can be measured. Insights about the audience who saw the ads and content can be derived. Such data can be used to develop or improve user’s experience, systems and software.

By clicking ‘I Agree’ you will allow the use of indicated cookies, device identifiers, web beacons or other similar technologies. Your settings can be changed in the browser on your device.

For certain purposes, legitimate interests may be relied on, rather than consent. You can read more about this in our Privacy and Cookie Policy.